TimePDT,TemperatureF,Dew PointF,Humidity,Sea Level PressureIn,VisibilityMPH,Wind Direction,Wind SpeedMPH,Gust SpeedMPH,PrecipitationIn,Events,Conditions,WindDirDegrees,DateUTC
12:56 AM,71.1,37.0,29,29.89,10.0,SW,8.1,-,N/A,,Clear,230,2012-10-04 07:56:00
1:56 AM,69.1,37.0,31,29.89,10.0,SSW,5.8,-,N/A,,Clear,210,2012-10-04 08:56:00
2:56 AM,62.1,36.0,38,29.90,10.0,Calm,Calm,-,N/A,,Clear,0,2012-10-04 09:56:00
3:56 AM,60.1,34.0,38,29.90,10.0,SW,4.6,-,N/A,,Clear,230,2012-10-04 10:56:00
4:56 AM,57.9,35.1,42,29.92,10.0,West,5.8,-,N/A,,Clear,280,2012-10-04 11:56:00
5:56 AM,57.9,35.1,42,29.94,10.0,SSW,3.5,-,N/A,,Scattered Clouds,210,2012-10-04 12:56:00
6:56 AM,57.9,35.1,42,29.96,10.0,WSW,4.6,-,N/A,,Mostly Cloudy,240,2012-10-04 13:56:00
7:56 AM,64.0,36.0,35,29.98,10.0,Calm,Calm,-,N/A,,Mostly Cloudy,0,2012-10-04 14:56:00
8:56 AM,69.1,37.0,31,29.99,10.0,Calm,Calm,-,N/A,,Mostly Cloudy,0,2012-10-04 15:56:00
9:56 AM,73.0,37.9,28,30.00,10.0,Calm,Calm,-,N/A,,Mostly Cloudy,0,2012-10-04 16:56:00
10:56 AM,79.0,37.9,23,29.99,10.0,NE,3.5,-,N/A,,Mostly Cloudy,50,2012-10-04 17:56:00
11:56 AM,84.0,37.0,19,29.98,10.0,East,3.5,-,N/A,,Mostly Cloudy,80,2012-10-04 18:56:00
12:56 PM,87.1,37.0,17,29.95,10.0,North,3.5,-,N/A,,Mostly Cloudy,360,2012-10-04 19:56:00
1:56 PM,89.1,37.0,16,29.92,10.0,East,5.8,-,N/A,,Mostly Cloudy,100,2012-10-04 20:56:00
2:56 PM,91.9,36.0,14,29.90,10.0,Calm,Calm,-,N/A,,Partly Cloudy,0,2012-10-04 21:56:00
3:56 PM,93.0,36.0,13,29.88,10.0,Variable,4.6,-,N/A,,Partly Cloudy,0,2012-10-04 22:56:00
4:56 PM,91.9,32.0,12,29.87,10.0,SSW,11.5,-,N/A,,Partly Cloudy,200,2012-10-04 23:56:00
5:56 PM,90.0,35.1,14,29.86,10.0,West,6.9,-,N/A,,Partly Cloudy,280,2012-10-05 00:56:00
6:56 PM,82.9,33.1,17,29.88,10.0,West,6.9,-,N/A,,Clear,260,2012-10-05 01:56:00
7:56 PM,81.0,32.0,17,29.89,10.0,SW,10.4,-,N/A,,Clear,230,2012-10-05 02:56:00
8:56 PM,75.0,30.9,20,29.89,10.0,South,6.9,-,N/A,,Clear,190,2012-10-05 03:56:00
9:56 PM,71.1,32.0,24,29.91,10.0,SSE,8.1,-,N/A,,Clear,150,2012-10-05 04:56:00
10:56 PM,71.1,32.0,24,29.91,10.0,South,9.2,-,N/A,,Clear,190,2012-10-05 05:56:00
11:56 PM,66.9,30.9,26,29.91,10.0,South,5.8,-,N/A,,Clear,170,2012-10-05 06:56:00